Wind_Speed
47 49 50 50 50 49 49 49 49 51 53 54 56 58 59 60 61 63 64 65 65 65 64 63 62 62 61 61 61 62 63 64 63 62 64 66 66 65 63 61 58 56 54
50 50 51 52 52 52 52 53 54 55 56 57 58 59 60 61 62 63 64 64 63 62 61 61 60 60 60 60 61 61 62 63 62 62 60 59 58 55 53 50 47 45 42
52 53 54 54 55 56 56 56 57 57 58 58 59 60 61 61 62 62 62 61 60 59 58 58 58 58 59 59 60 60 60 61 60 58 54 51 48 45 43 41 39 36 33
56 57 57 58 58 58 58 58 57 58 58 59 60 60 60 60 60 60 59 58 57 56 56 56 57 57 58 58 58 57 57 56 53 49 45 41 39 37 36 33 31 30 29
58 58 58 58 58 57 57 57 58 58 58 58 58 58 58 58 57 57 56 55 55 55 55 56 56 56 56 55 55 54 51 48 43 39 35 33 31 30 29 28 27 27 27
57 57 57 56 56 56 56 57 56 56 56 56 55 55 55 54 54 53 53 53 54 54 54 54 54 54 53 52 50 47 43 38 33 29 28 28 27 27 27 27 26 25 25
55 55 55 54 54 55 55 55 54 53 53 52 52 52 52 52 52 52 52 52 51 51 51 51 51 50 47 44 40 37 34 29 26 25 25 25 26 27 27 27 26 25 24
53 53 53 53 52 52 51 50 50 49 49 49 49 49 49 49 49 49 48 49 49 48 47 46 44 41 37 34 31 28 25 24 23 23 24 26 27 27 27 26 25 24 23
50 50 50 49 48 48 47 46 46 46 46 46 46 46 46 46 46 47 46 46 45 43 42 39 35 31 28 24 21 20 19 20 21 23 25 26 26 26 25 23 21 20 20
47 47 46 45 44 44 43 43 43 43 43 43 43 44 44 44 44 43 41 40 38 37 34 31 26 22 19 16 15 15 16 18 21 23 24 25 24 23 21 19 18 17 16
43 42 41 41 40 40 40 40 40 41 41 42 42 41 41 40 39 37 35 33 31 28 26 23 18 14 12 11 11 13 15 17 19 21 22 22 21 19 17 16 15 15 14
38 37 37 37 37 38 38 39 39 39 39 39 38 37 36 34 32 30 27 24 22 21 18 14 11 8 7 8 10 12 14 17 19 20 21 21 20 18 17 16 15 15 15
34 34 35 36 36 37 37 37 37 36 35 34 32 30 29 27 25 22 19 17 16 13 10 7 5 5 6 7 10 12 14 17 19 20 21 21 20 18 17 17 17 17 17
33 34 35 35 36 36 35 34 33 31 29 27 25 23 22 20 18 16 13 11 9 6 4 3 3 4 6 8 10 11 14 17 19 21 22 21 21 19 18 18 19 19 19
33 34 34 34 34 33 31 29 27 25 22 20 18 17 16 15 13 12 9 6 3 2 3 4 5 5 7 8 10 12 14 17 20 22 23 22 21 21 20 19 20 21 21
32 32 32 31 30 28 25 23 20 18 16 15 14 13 12 11 10 8 5 4 5 6 6 6 6 7 8 9 11 13 15 17 20 22 23 23 22 22 22 22 22 23 24
31 30 28 26 24 21 19 17 15 13 12 11 10 10 9 8 7 5 6 8 9 9 8 8 8 8 9 10 12 13 15 18 20 22 23 24 24 23 23 23 24 25 26
27 25 23 20 18 15 13 12 10 9 8 8 7 7 7 6 6 8 10 11 10 10 9 9 9 9 10 11 13 14 16 18 20 22 23 24 24 24 24 24 25 26 27
22 20 18 15 13 11 9 7 6 5 5 5 5 6 6 8 10 11 12 11 11 10 10 10 10 10 11 12 13 15 17 19 20 22 23 24 24 25 25 25 25 26 28
19 16 14 11 9 7 6 4 3 3 4 5 5 7 9 11 12 12 12 12 11 11 10 11 11 11 11 13 14 15 17 19 20 22 23 24 24 25 25 26 26 26 27
16 14 12 9 7 6 5 5 5 5 6 7 8 10 12 13 13 13 12 12 11 11 11 11 11 12 12 13 14 16 17 19 20 22 23 24 25 25 25 26 26 26 26
16 14 12 10 9 8 8 8 8 9 9 11 12 14 15 14 14 13 12 12 12 12 12 12 12 12 13 13 15 16 18 19 20 22 23 24 25 26 26 26 25 25 25
18 16 15 13 13 13 13 13 13 13 13 14 15 15 14 13 13 12 12 12 12 12 12 12 12 12 13 14 14 16 17 19 20 21 22 23 25 26 26 26 26 25 25
22 21 20 18 18 17 17 16 16 16 17 16 16 15 14 13 12 12 12 12 11 11 12 12 12 12 13 14 14 15 17 18 19 20 21 22 23 24 25 25 25 25 25
25 24 23 23 22 21 20 19 18 17 17 16 15 14 13 12 12 12 12 12 12 11 11 11 12 12 12 13 14 15 16 16 17 18 19 20 21 22 23 23 23 24 24
27 26 25 24 23 22 20 19 17 16 15 14 13 12 12 12 12 12 12 12 12 12 11 11 11 12 12 12 13 13 14 15 16 17 17 18 19 20 20 20 21 21 21
Wind_Direction
297 299 299 300 301 302 304 303 302 301 301 300 299 297 296 295 294 293 294 294 295 296 296 296 296 296 296 296 296 296 296 295 295 294 293 293 293 292 293 293 292 291 289
297 298 298 298 299 300 301 302 301 301 300 299 298 297 295 294 294 293 294 294 295 295 296 296 296 296 297 297 298 297 297 297 297 297 296 295 295 295 295 295 295 295 292
295 296 298 299 299 299 300 301 300 299 299 298 297 296 295 294 294 294 295 295 296 296 297 297 298 298 298 298 298 298 298 298 299 299 299 298 297 296 297 297 297 296 295
294 296 297 299 299 299 299 299 299 298 298 297 296 295 295 295 295 295 295 296 297 297 298 299 299 299 298 298 299 299 300 300 301 302 301 300 299 300 300 300 299 298 297
296 297 298 299 299 298 298 298 297 297 296 296 295 295 295 295 295 296 297 297 298 299 299 299 299 299 299 299 300 300 301 302 302 302 302 301 303 303 304 304 303 301 299
297 297 298 298 297 297 296 296 296 296 295 295 295 295 295 296 296 297 297 298 299 299 299 299 300 300 301 301 302 303 304 304 304 304 304 305 306 306 307 307 305 303 300
297 297 297 296 296 296 296 296 296 296 295 295 295 295 296 296 297 297 298 298 299 299 299 299 300 302 303 304 304 305 306 308 309 309 310 311 311 310 309 309 307 304 301
296 296 296 296 296 296 296 295 295 295 295 295 295 296 297 297 298 298 298 298 298 299 300 301 302 304 305 305 305 306 309 312 313 314 316 317 317 316 313 311 308 306 302
295 295 295 296 295 295 295 294 294 294 295 295 296 296 297 297 297 297 298 298 299 300 302 303 305 306 305 304 306 309 312 315 318 320 321 322 322 320 319 317 314 312 308
295 295 295 295 294 294 294 294 295 295 296 296 296 296 297 297 297 298 299 300 301 303 304 306 307 306 305 307 311 316 319 322 325 327 327 328 328 328 329 329 328 327 324
296 295 295 294 295 295 295 296 296 296 296 296 296 297 297 298 298 299 301 302 303 304 306 307 309 311 313 318 323 327 330 333 334 336 339 343 344 344 345 347 347 346 347
296 296 296 296 296 296 296 296 296 296 296 297 297 298 299 300 301 303 304 305 304 305 306 308 313 321 329 334 338 340 342 345 348 351 355 357 358 360 3 4 5 5 5
298 298 298 298 298 298 298 298 298 298 299 299 300 301 303 304 306 307 307 307 306 307 309 318 334 346 351 353 352 352 355 359 1 4 5 7 10 14 17 18 19 19 17
301 301 301 300 300 300 300 300 301 301 302 302 304 305 307 309 311 311 312 312 310 313 329 7 28 24 14 7 6 8 10 11 13 13 13 15 17 21 23 24 24 22 21
305 304 304 303 302 303 303 303 304 303 304 305 307 309 312 315 318 321 324 329 348 49 72 70 57 41 26 23 23 23 21 21 19 18 19 21 23 27 28 28 27 27 28
308 307 307 305 305 305 305 306 306 306 307 309 312 315 319 324 330 337 355 49 82 89 84 74 63 49 41 41 37 33 30 28 25 24 24 26 29 31 33 34 35 35 35
311 310 309 308 307 307 308 309 308 309 313 317 322 328 335 343 355 26 72 92 94 89 83 75 66 56 54 50 45 41 38 34 31 29 30 31 33 35 37 38 38 38 39
316 315 314 313 312 311 311 311 312 315 322 331 340 350 2 23 53 80 93 95 90 84 80 74 66 63 63 57 52 50 45 39 35 34 35 35 37 38 40 41 41 43 45
325 324 323 321 321 319 320 323 325 330 343 358 12 26 45 69 87 94 94 91 87 82 78 73 70 71 70 63 59 55 49 44 41 39 39 40 42 43 44 44 45 47 49
338 337 337 336 337 342 348 357 9 26 37 44 51 65 80 91 95 94 90 87 83 79 77 74 75 77 75 69 65 60 54 50 47 44 44 46 47 48 49 49 49 51 53
355 356 358 2 12 24 40 58 70 71 73 76 82 88 96 97 94 90 85 81 79 78 77 77 80 83 80 76 71 65 60 55 51 49 50 51 51 52 52 52 52 54 56
14 18 26 37 49 60 69 79 85 87 90 93 96 99 100 95 90 84 79 78 77 79 79 80 85 88 85 82 76 70 65 60 56 54 54 54 54 54 54 54 55 56 57
33 41 49 58 66 73 79 85 90 92 95 97 99 100 96 90 83 76 73 74 76 80 81 82 89 92 90 86 80 74 69 64 60 57 56 55 55 55 56 56 57 57 59
49 55 61 67 72 77 81 86 90 93 94 96 97 94 89 83 77 73 72 73 76 81 82 85 92 95 94 88 83 78 72 67 63 60 58 57 57 57 57 58 58 59 60
55 60 64 67 71 75 79 84 87 90 92 93 92 89 85 80 75 73 73 74 77 82 84 87 93 97 97 91 86 81 74 69 65 62 59 57 57 57 57 57 57 58 59
57 60 63 65 68 70 74 78 81 84 87 89 89 87 83 79 75 73 74 76 79 82 85 90 95 98 98 94 89 82 76 70 66 62 58 56 55 54 53 53 53 54 54
Height
5771 5768 5765 5761 5758 5755 5752 5749 5745 5742 5738 5734 5730 5725 5721 5716 5711 5706 5700 5695 5689 5684 5678 5672 5666 5660 5654 5647 5640 5633 5626 5620 5617 5612 5602 5593 5584 5577 5570 5563 5557 5551 5546
5761 5758 5754 5751 5748 5744 5741 5737 5733 5728 5724 5720 5715 5711 5706 5700 5695 5690 5685 5679 5674 5668 5663 5657 5651 5644 5638 5631 5624 5617 5609 5602 5597 5594 5586 5576 5568 5560 5555 5549 5542 5536 5531
5751 5747 5743 5739 5736 5732 5728 5724 5719 5715 5710 5705 5700 5695 5690 5685 5680 5674 5669 5664 5659 5653 5648 5642 5635 5629 5623 5616 5609 5602 5595 5587 5580 5575 5569 5561 5554 5547 5542 5536 5530 5525 5520
5740 5736 5732 5727 5723 5719 5714 5710 5705 5700 5695 5690 5685 5680 5675 5669 5664 5659 5654 5649 5644 5639 5633 5627 5621 5615 5609 5602 5595 5588 5581 5574 5567 5561 5555 5549 5543 5536 5531 5526 5522 5517 5512
5728 5724 5719 5714 5710 5705 5700 5695 5690 5686 5681 5676 5670 5665 5660 5655 5650 5645 5640 5635 5630 5625 5619 5613 5607 5601 5595 5588 5582 5575 5568 5562 5556 5550 5545 5539 5534 5528 5523 5519 5514 5510 5506
5715 5710 5706 5701 5696 5691 5686 5681 5676 5671 5666 5661 5656 5651 5646 5641 5636 5632 5627 5622 5617 5612 5606 5599 5593 5588 5582 5576 5569 5563 5557 5552 5547 5542 5537 5532 5527 5522 5517 5512 5508 5504 5500
5700 5696 5692 5687 5682 5677 5672 5667 5662 5657 5652 5647 5642 5637 5633 5628 5624 5619 5615 5610 5605 5600 5594 5588 5582 5576 5571 5565 5559 5553 5548 5543 5539 5535 5531 5526 5521 5517 5512 5507 5502 5497 5493
5687 5682 5678 5673 5668 5663 5658 5653 5648 5644 5639 5635 5630 5626 5621 5617 5612 5607 5602 5598 5593 5588 5583 5578 5572 5567 5562 5557 5552 5548 5543 5539 5535 5530 5526 5521 5516 5510 5505 5500 5495 5491 5487
5673 5668 5664 5659 5654 5649 5645 5640 5636 5632 5627 5623 5618 5614 5610 5605 5601 5596 5591 5586 5582 5577 5573 5568 5564 5559 5555 5551 5547 5544 5540 5536 5531 5527 5522 5516 5511 5505 5499 5494 5490 5485 5482
5660 5655 5650 5646 5641 5637 5633 5628 5624 5620 5616 5612 5608 5603 5599 5594 5590 5585 5581 5576 5572 5568 5564 5560 5557 5553 5550 5547 5544 5541 5537 5534 5529 5524 5518 5512 5506 5501 5495 5490 5486 5482 5477
5647 5643 5638 5634 5630 5625 5621 5617 5613 5609 5605 5601 5597 5593 5588 5584 5579 5576 5572 5568 5564 5560 5557 5554 5551 5549 5547 5544 5542 5539 5536 5532 5527 5522 5516 5510 5504 5498 5493 5488 5484 5480 5476
5636 5632 5627 5623 5619 5615 5611 5607 5603 5599 5595 5591 5586 5582 5579 5575 5571 5567 5564 5561 5558 5555 5552 5550 5548 5547 5545 5543 5541 5538 5534 5530 5525 5520 5514 5508 5503 5497 5492 5488 5484 5480 5476
5626 5622 5617 5613 5609 5604 5600 5596 5592 5588 5585 5581 5577 5574 5570 5567 5564 5561 5558 5555 5553 5551 5549 5548 5547 5546 5544 5543 5541 5538 5534 5530 5525 5520 5514 5509 5503 5498 5493 5489 5485 5481 5477
5617 5612 5607 5603 5598 5594 5590 5586 5583 5579 5576 5573 5570 5567 5565 5562 5559 5556 5554 5552 5550 5549 5548 5547 5547 5546 5545 5543 5541 5538 5534 5530 5526 5521 5515 5510 5504 5499 5495 5491 5487 5483 5478
5608 5603 5598 5593 5589 5585 5581 5578 5575 5572 5570 5567 5565 5563 5560 5558 5555 5553 5551 5549 5549 5548 5548 5548 5548 5547 5546 5544 5541 5538 5535 5531 5527 5522 5517 5512 5507 5502 5498 5493 5489 5485 5480
5599 5594 5589 5585 5581 5577 5574 5571 5569 5567 5565 5563 5561 5559 5557 5555 5553 5551 5549 5549 5549 5549 5549 5549 5549 5548 5547 5545 5543 5540 5537 5534 5530 5525 5520 5515 5510 5505 5501 5497 5493 5489 5484
5591 5586 5581 5577 5574 5571 5569 5567 5565 5563 5561 5560 5558 5557 5555 5553 5551 5550 5550 5550 5551 5551 5551 5551 5550 5549 5548 5547 5545 5542 5540 5536 5533 5528 5523 5519 5514 5510 5506 5502 5498 5494 5489
5584 5579 5575 5571 5568 5566 5564 5563 5562 5560 5559 5558 5557 5556 5554 5553 5552 5552 5552 5553 5553 5553 5553 5553 5552 5551 5550 5549 5547 5545 5543 5540 5536 5532 5528 5523 5519 5515 5511 5507 5503 5499 5495
5578 5573 5570 5567 5564 5563 5561 5560 5560 5559 5558 5557 5557 5556 5555 5554 5554 5555 5555 5556 5556 5556 5556 5555 5555 5554 5553 5552 5550 5549 5546 5544 5540 5537 5533 5529 5525 5521 5517 5513 5509 5506 5502
5574 5570 5566 5564 5562 5560 5560 5559 5559 5558 5558 5558 5557 5557 5557 5557 5557 5558 5559 5559 5559 5559 5558 5558 5557 5557 5556 5555 5554 5552 5550 5548 5545 5542 5538 5534 5531 5527 5523 5520 5516 5513 5510
5572 5568 5565 5563 5561 5560 5560 5559 5559 5559 5559 5559 5559 5559 5560 5560 5561 5562 5562 5562 5562 5562 5561 5561 5560 5560 5560 5559 5558 5556 5555 5553 5550 5547 5544 5540 5537 5534 5530 5527 5524 5521 5518
5573 5569 5566 5564 5563 5562 5561 5561 5561 5561 5562 5562 5562 5563 5564 5564 5565 5565 5565 5565 5565 5565 5564 5564 5564 5564 5563 5563 5562 5561 5559 5558 5556 5553 5550 5547 5544 5541 5537 5534 5532 5529 5526
5575 5572 5569 5567 5566 5565 5565 5565 5565 5565 5565 5566 5567 5567 5568 5569 5569 5569 5569 5568 5568 5568 5568 5567 5567 5567 5567 5567 5566 5565 5564 5563 5561 5559 5556 5554 5551 5548 5545 5542 5539 5537 5534
5581 5577 5575 5573 5571 5570 5570 5569 5569 5570 5570 5571 5571 5572 5572 5573 5573 5572 5572 5572 5571 5571 5571 5571 5571 5571 5571 5571 5571 5570 5569 5568 5566 5565 5563 5560 5558 5555 5553 5550 5547 5545 5542
5588 5585 5582 5580 5578 5577 5576 5575 5575 5575 5575 5576 5576 5576 5577 5576 5576 5576 5575 5575 5575 5575 5575 5575 5575 5575 5575 5575 5575 5574 5574 5573 5572 5570 5569 5567 5564 5562 5560 5557 5555 5553 5550
5596 5593 5590 5588 5586 5584 5583 5582 5581 5581 5580 5580 5580 5580 5580 5580 5580 5579 5579 5579 5579 5578 5578 5578 5578 5579 5579 5579 5579 5579 5578 5578 5577 5575 5574 5572 5570 5568 5566 5564 5562 5559 5557